Radiation Dose measured at exhaust stack monitor of Fukushima Daiichi Nuclear Power Station
Date,Time,Unit 5 6 shared exhaust cylinders,Wind Direction,Wind Velocity(m/s)
2024/03/09,00:00,3.9,northwest,6.0
2024/03/09,00:10,4.0,northwest,6.1
2024/03/09,00:20,3.9,northwest,6.0
2024/03/09,00:30,3.9,northwest,6.5
2024/03/09,00:40,3.9,northwest,6.2
2024/03/09,00:50,3.9,northwest,5.9
2024/03/09,01:00,3.7,northwest,6.5
2024/03/09,01:10,3.9,northwest,6.2
2024/03/09,01:20,3.8,northwest,6.4
2024/03/09,01:30,3.9,northwest,6.0
2024/03/09,01:40,3.8,northwest,5.4
2024/03/09,01:50,3.7,northwest,5.2
2024/03/09,02:00,3.8,northwest,5.8
2024/03/09,02:10,4.0,northwest,6.1
2024/03/09,02:20,3.8,northwest,6.0
2024/03/09,02:30,3.7,northwest,5.8
2024/03/09,02:40,3.8,northwest,6.1
2024/03/09,02:50,3.7,northwest,5.8
2024/03/09,03:00,3.9,northwest,5.8
2024/03/09,03:10,3.9,northwest,5.7
2024/03/09,03:20,3.9,northwest,6.3
2024/03/09,03:30,3.9,north-northwest,5.1
2024/03/09,03:40,3.9,north-northwest,5.9
2024/03/09,03:50,3.8,north-northwest,7.0
2024/03/09,04:00,3.9,north-northwest,7.1
2024/03/09,04:10,3.8,north-northwest,6.1
2024/03/09,04:20,3.8,north-northwest,6.0
2024/03/09,04:30,3.9,north-northwest,6.5
2024/03/09,04:40,3.8,north-northwest,4.6
2024/03/09,04:50,4.0,northwest,4.4
2024/03/09,05:00,3.7,west-northwest,4.7
2024/03/09,05:10,3.8,west-northwest,4.5
2024/03/09,05:20,3.8,west-northwest,4.4
2024/03/09,05:30,3.9,west-northwest,5.1
2024/03/09,05:40,3.8,west-northwest,5.1
2024/03/09,05:50,3.8,southwest,4.9
2024/03/09,06:00,3.8,west-southwest,2.3
2024/03/09,06:10,3.8,west-southwest,2.0
2024/03/09,06:20,3.8,west,1.8
2024/03/09,06:30,3.7,north-northwest,2.0
2024/03/09,06:40,3.8,west-northwest,1.7
2024/03/09,06:50,3.8,north-northwest,2.0
2024/03/09,07:00,3.8,northwest,1.5
2024/03/09,07:10,3.8,west,2.3
2024/03/09,07:20,4.0,west-southwest,4.5
2024/03/09,07:30,3.8,west,3.1
2024/03/09,07:40,3.8,west-southwest,2.3
2024/03/09,07:50,4.0,west-northwest,1.9
2024/03/09,08:00,3.8,northwest,2.2
2024/03/09,08:10,3.8,northwest,6.5
2024/03/09,08:20,3.8,west-northwest,7.2
2024/03/09,08:30,4.0,west-northwest,7.8
2024/03/09,08:40,3.8,west-northwest,8.6
2024/03/09,08:50,3.9,west-northwest,8.6
2024/03/09,09:00,3.8,west,9.6
2024/03/09,09:10,3.8,west,10.2
2024/03/09,09:20,3.9,west-northwest,14.1
2024/03/09,09:30,3.7,west,11.3
2024/03/09,09:40,3.8,west,18.2
2024/03/09,09:50,3.9,west,13.9
2024/03/09,10:00,3.9,west,11.7
2024/03/09,10:10,4.0,west,14.9
2024/03/09,10:20,4.0,west,15.5
2024/03/09,10:30,3.9,-,CALM
2024/03/09,10:40,3.8,west,15.5
2024/03/09,10:50,3.9,west,11.1
2024/03/09,11:00,3.9,west,8.7
2024/03/09,11:10,3.7,west,12.2
2024/03/09,11:20,3.8,west,13.0
2024/03/09,11:30,3.9,west,9.6
2024/03/09,11:40,3.9,west,12.5
2024/03/09,11:50,3.8,west,9.7
2024/03/09,12:00,3.7,west-northwest,9.6
2024/03/09,12:10,3.8,west-northwest,9.1
2024/03/09,12:20,3.8,west-northwest,8.7
2024/03/09,12:30,3.8,west,8.1
2024/03/09,12:40,3.8,west,8.6
2024/03/09,12:50,3.8,west,8.6
2024/03/09,13:00,3.8,west,9.9
2024/03/09,13:10,4.0,west-northwest,11.7
2024/03/09,13:20,4.0,west-northwest,9.4
2024/03/09,13:30,3.9,west,8.6
2024/03/09,13:40,3.9,west,8.9
2024/03/09,13:50,4.0,west,5.0
2024/03/09,14:00,3.8,west,7.8
2024/03/09,14:10,3.9,west,7.9
2024/03/09,14:20,3.9,west,8.3
2024/03/09,14:30,3.9,west,10.5
2024/03/09,14:40,4.0,west,8.2
2024/03/09,14:50,3.8,west,7.6
2024/03/09,15:00,3.9,west,6.5
2024/03/09,15:10,3.8,west,8.5
2024/03/09,15:20,3.9,west,5.3
2024/03/09,15:30,3.9,west,4.5
2024/03/09,15:40,3.7,west,7.2
2024/03/09,15:50,3.8,west,8.0
2024/03/09,16:00,3.9,west,8.6
2024/03/09,16:10,3.8,west,8.3
2024/03/09,16:20,3.8,west,6.7
2024/03/09,16:30,4.0,west,6.9
2024/03/09,16:40,3.9,west,6.6
2024/03/09,16:50,3.8,west,8.1
2024/03/09,17:00,3.9,west,7.5
2024/03/09,17:10,3.7,west,6.7
2024/03/09,17:20,3.7,west,6.8
2024/03/09,17:30,3.9,west,6.4
2024/03/09,17:40,3.9,west,6.4
2024/03/09,17:50,3.8,west,6.3
2024/03/09,18:00,3.8,west,6.5
2024/03/09,18:10,3.9,west,8.0
2024/03/09,18:20,3.8,west,6.0
2024/03/09,18:30,3.9,west-northwest,6.9
2024/03/09,18:40,3.9,west-northwest,7.9
2024/03/09,18:50,3.7,west-northwest,8.6
2024/03/09,19:00,3.8,west,6.2
2024/03/09,19:10,3.8,west,4.0
2024/03/09,19:20,3.7,north-northwest,2.3
2024/03/09,19:30,3.8,northwest,1.5
2024/03/09,19:40,3.9,northwest,3.1
2024/03/09,19:50,3.8,northwest,5.0
2024/03/09,20:00,3.9,northwest,6.1
2024/03/09,20:10,3.9,northwest,5.6
2024/03/09,20:20,3.9,northwest,5.6
2024/03/09,20:30,3.8,northwest,5.7
2024/03/09,20:40,3.9,northwest,5.6
2024/03/09,20:50,3.9,northwest,4.6
2024/03/09,21:00,3.7,north-northwest,3.5
2024/03/09,21:10,3.8,north-northwest,3.4
2024/03/09,21:20,3.8,north,4.4
2024/03/09,21:30,3.8,north,6.2
2024/03/09,21:40,3.7,north-northwest,7.3
2024/03/09,21:50,3.6,north-northwest,8.5
2024/03/09,22:00,3.7,north-northwest,9.4
2024/03/09,22:10,3.7,north-northwest,9.4
2024/03/09,22:20,3.8,northwest,8.2
2024/03/09,22:30,3.7,northwest,7.5
2024/03/09,22:40,3.8,northwest,7.0
2024/03/09,22:50,3.8,northwest,6.0
2024/03/09,23:00,3.8,northwest,7.0
2024/03/09,23:10,3.7,northwest,7.6
2024/03/09,23:20,3.7,northwest,8.2
2024/03/09,23:30,3.8,northwest,7.2
2024/03/09,23:40,3.9,northwest,6.9
2024/03/09,23:50,3.7,northwest,7.1
